This demonstration page uses our WeatherBlox Daily Observations layout. Learn more.

Left ArrowRight Arrow

Hourly Observations for September 2, 2019

Temp ( °F °C ) Dew Point ( °F °C ) Humidity (%) Winds ( mph kmh ) Pressure ( in mb ) Visibility ( mi km ) Precip ( " mm )
12:53 am 00:53 Partly Cloudy 71 21.7 67 19.4 87 87 SSE 7 11 30.05 1018 10 16 0.00 0.00
1:53 am 01:53 Clear 70 21.1 66 18.9 87 87 SSE 9 15 30.03 1017 10 16 0.00 0.00
2:53 am 02:53 Clear 69 20.6 66 18.9 90 90 SSE 8 13 30.05 1018 10 16 0.00 0.00
3:53 am 03:53 Mostly Cloudy 69 20.6 66 18.9 90 90 SSE 8 13 30.04 1017 10 16 0.00 0.00
4:53 am 04:53 Partly Cloudy 68 20 65 18.3 90 90 SSE 10 17 30.03 1017 10 16 0.00 0.00
5:53 am 05:53 Clear 68 20 66 18.9 93 93 S 12 19 30.01 1016 9 14 0.00 0.00
6:53 am 06:53 Clear 68 20 66 18.9 93 93 S 9 15 30.00 1016 8 13 0.00 0.00
7:53 am 07:53 Sunny with Mist and Fog 69 20.6 66 18.9 90 90 SSE 9 15 30.01 1016 6 10 0.00 0.00
8:53 am 08:53 Sunny 70 21.1 67 19.4 90 90 SSE 10 17 30.02 1017 7 11 0.00 0.00
9:53 am 09:53 Sunny 75 23.9 69 20.6 82 82 S 14 22 29.99 1016 10 16 0.00 0.00
10:53 am 10:53 Sunny 79 26.1 69 20.6 72 72 S 15 24 29.97 1015 10 16 0.00 0.00
11:53 am 11:53 Sunny 83 28.3 70 21.1 65 65 S 16 26 29.95 1014 10 16 0.00 0.00
12:53 pm 12:53 Sunny 85 29.4 71 21.7 63 63 SSW 15 24 29.92 1013 10 16 0.00 0.00
1:53 pm 13:53 Sunny 87 30.6 72 22.2 61 61 S 16 26 29.91 1013 10 16 0.00 0.00
2:53 pm 14:53 Sunny 89 31.7 71 21.7 55 55 S 15 24 29.88 1012 10 16 0.00 0.00
3:53 pm 15:53 Sunny 90 32.2 71 21.7 54 54 S 17 28 29.86 1011 10 16 0.00 0.00
4:53 pm 16:53 Sunny 91 32.8 71 21.7 52 52 S 20 31 29.84 1010 10 16 0.00 0.00
5:53 pm 17:53 Sunny 90 32.2 71 21.7 54 54 SSW 14 22 29.83 1010 10 16 0.00 0.00
6:53 pm 18:53 Sunny 88 31.1 71 21.7 57 57 S 13 20 29.81 1010 10 16 0.00 0.00
7:53 pm 19:53 Sunny 85 29.4 70 21.1 61 61 S 12 19 29.82 1010 10 16 0.00 0.00
8:53 pm 20:53 Clear 83 28.3 69 20.6 63 63 S 9 15 29.82 1010 10 16 0.00 0.00
9:53 pm 21:53 Clear 81 27.2 69 20.6 67 67 S 10 17 29.83 1010 10 16 0.00 0.00
10:53 pm 22:53 Clear 80 26.7 69 20.6 69 69 S 12 19 29.83 1010 10 16 0.00 0.00
11:53 pm 23:53 Clear 79 26.1 69 20.6 72 72 SSW 14 22 29.83 1010 10 16 0.00 0.00

Powered by AerisWeather